Location: Chervonnoye
(48.6000°N, 34.4000°E)
Time: 16:32:45
(UTC+00:00)

Sich 1 - Pass Details

Date: 23 November 2020
Orbit: 594 x 625 km, 82.5° (Epoch: 27 January)

Event Time Altitude Azimuth Distance (km) Brightness Sun altitude
Rises 15:06:23 0° 354° (N) 2,917 6.4 -11.7°
Reaches altitude 10° 15:08:42 10° 0° (N) 2,002 5.5 -12.0°
Maximum altitude 15:13:00 48° 76° (ENE) 810 3.2 -12.7°
Drops below altitude 10° 15:17:14 10° 151° (SSE) 1,969 5.5 -13.4°
Sets 15:19:30 0° 157° (SSE) 2,863 6.4 -13.7°
